Погода в Мангуте

Россия / Забайкальский край     49°41′45″N   112°40′21″E
темп.,
°C
ветер,
м/с
пор.,
м/с
влажн.,
%
обл.,
%
осадки,
мм/ч
давл.,
гПа
погр.,
м
5 декабря, вс
вс500:00−14ююв1196100 0.0 101910
03:00−12ююв1194100 0.1 101917
06:00−9юв1191100 0.0 102011
09:00−12зюз119194 0.0 102310
12:00−6зюз24731 0.0 1023127
15:00−3зсз596115 0.0 1022414
18:00−5зсз714610 0.0 1025397
21:00−9з47705 0.0 1029111
6 декабря, пн
пн600:00−10з47700 0.0 103096
03:00−11юз47783 0.0 103184
06:00−13ююз23876 0.0 103241
09:00−14ю2292100 0.0 103226
12:00−9ююз357552 0.0 1029171
15:00−6ююз34705 0.0 1025192
18:00−11ю22895 0.0 102718
21:00−13ю21945 0.0 102813
7 декабря, вт
вт700:00−14ю119727 0.0 102911
03:00−15ю119735 0.0 103011
06:00−15ю2197100 0.0 103014
09:00−16ю219654 0.0 103013
12:00−10ююз22747 0.0 102990
15:00−6ююз23675 0.0 1025117
18:00−12ю118515 0.0 102710
21:00−13ю1191100 0.0 102712
8 декабря, ср
ср800:00−13ю2291100 0.0 102519
03:00−14ю2292100 0.0 102426
06:00−14ю2291100 0.0 102225
09:00−14ю2290100 0.0 102025
12:00−9ююз2370100 0.0 1018117
15:00−6ссз1171100 0.1 101551
18:00−7зсз1196100 1.7 101621
21:00−8ююв1195100 2.1 101818
9 декабря, чт
чт900:00−8зсз1192100 0.0 102031
03:00−13зюз11876 0.0 102410
06:00−16з11925 0.0 102810
09:00−16юз1193100 0.0 103110
12:00−10зюз127799 0.0 103164
15:00−7ююз2376100 0.0 1029119
18:00−10ю2288100 0.0 103119
21:00−10в1193100 0.1 103311